AO-07 1 07530U 74089B 23257.87472990 -.00000030 00000-0 99318-4 0 9996 2 07530 101.9563 245.1820 0011840 252.2901 137.0439 12.53666948234656 UO-11 1 14781U 84021B 23257.80579750 .00002458 00000-0 29248-3 0 9993 2 14781 97.6668 231.3256 0006400 267.2841 92.7642 14.85239201128441 AO-16 1 20439U 90005D 23257.82745465 .00000284 00000-0 12048-3 0 9994 2 20439 98.8905 250.3871 0009849 304.9911 174.8722 14.33158957757996 LO-19 1 20442U 90005G 23257.80603305 .00000248 00000-0 10676-3 0 9997 2 20442 98.8534 236.2774 0010626 277.1965 82.8011 14.33313200758240 AO-27 1 22825U 93061C 23257.53893562 .00000216 00000-0 10092-3 0 9992 2 22825 98.8333 301.8361 0008799 160.5619 199.5900 14.30343775563068 IO-26 1 22826U 93061D 23257.65957386 .00000243 00000-0 11050-3 0 9996 2 22826 98.8280 301.8203 0009576 147.2134 212.9644 14.30709285563600 FO-29 1 24278U 96046B 23257.51064202 -.00000011 00000-0 24032-4 0 9995 2 24278 98.5388 223.9344 0350086 185.0594 174.6972 13.53153540337017 NOAA-15 1 25338U 98030A 23257.80639246 .00000261 00000-0 12655-3 0 9999 2 25338 98.6012 285.3119 0011255 56.4069 303.8184 14.26388081318035 GO-32 1 25397U 98043D 23257.46269022 .00000186 00000-0 10100-3 0 9990 2 25397 98.8778 215.7260 0000593 182.7660 177.3515 14.23908121308039 ISS 1 25544U 98067A 23257.70772193 .00017110 00000-0 31494-3 0 9999 2 25544 51.6414 245.0803 0005695 17.9078 153.9679 15.49271275415678 NO-44 1 26931U 01043C 23257.59552001 .00000298 00000-0 14476-3 0 9999 2 26931 67.0527 325.9576 0007455 259.6918 100.3343 14.30980758146378 SO-50 1 27607U 02058C 23257.51337831 .00002678 00000-0 38239-3 0 9998 2 27607 64.5580 351.0204 0059531 205.9034 153.9087 14.77604652115421 CO-55 1 27844U 03031E 23257.55883951 .00000554 00000-0 26619-3 0 9996 2 27844 98.6803 263.5191 0008961 221.6453 138.4043 14.22872169 48440 CO-57 1 27848U 03031J 23257.81209656 .00000422 00000-0 20912-3 0 9997 2 27848 98.6839 264.1490 0008633 237.8299 122.2042 14.22370241 48292 RS-22 1 27939U 03042A 23257.87935171 .00001849 00000-0 32617-3 0 9993 2 27939 98.2557 45.5906 0011886 208.6079 304.2039 14.68664964 67708 NOAA-18 1 28654U 05018A 23257.78491415 .00000326 00000-0 19842-3 0 9995 2 28654 98.9039 331.7200 0015227 124.8224 235.4383 14.13005064944224 CO-58 1 28895U 05043F 23257.28930826 .00002821 00000-0 52268-3 0 9990 2 28895 98.1654 28.7436 0016893 148.3575 211.8648 14.66003816953863 CO-65 1 32785U 08021C 23257.42288044 .00004892 00000-0 47511-3 0 9991 2 32785 97.7146 221.5514 0012418 158.7664 201.4073 14.93011505834139 AAUSAT2 1 32788U 08021F 23257.45298517 .00014018 00000-0 96816-3 0 9996 2 32788 97.5677 235.0355 0009965 61.2107 299.0120 15.05827441836535 DO-64 1 32789U 08021G 23257.52132632 .00142622 00000-0 23763-2 0 9993 2 32789 97.2934 279.2229 0008559 137.7497 222.4416 15.51456234841160 CO-66 1 32791U 08021J 23257.42383805 .00007871 00000-0 67278-3 0 9991 2 32791 97.6655 226.8948 0013619 107.9116 252.3592 14.97836257835013 RS-30 1 32953U 08025A 23257.78042095 .00000032 00000-0 15676-3 0 9994 2 32953 82.4975 261.3642 0019277 353.1178 6.9634 12.43129037694781 PRISM 1 33493U 09002B 23257.59897802 .00013676 00000-0 87850-3 0 9994 2 33493 98.2438 278.5097 0017356 105.8158 254.4983 15.08455827797223 NOAA-19 1 33591U 09005A 23257.84069459 .00000257 00000-0 16315-3 0 9992 2 33591 99.0915 305.1667 0013624 355.0809 5.0227 14.12819988752607 SRMSAT 1 37841U 11058D 23257.54530515 .00000545 00000-0 15393-3 0 9993 2 37841 19.9733 29.7384 0011802 294.3598 141.6085 14.10940625615449 HRBE 1 37855U 11061F 23257.52238624 .00036016 00000-0 98502-3 0 9991 2 37855 101.7096 269.9986 0108857 125.3152 235.8311 15.31448530650212 RS-40 1 38735U 12041C 23257.84864618 .00000026 00000-0 11278-3 0 9998 2 38735 82.4813 342.1885 0018509 101.9618 258.3537 12.42595827504955 ZACUBE-1 1 39417U 13066B 23257.42664756 .00006640 00000-0 75165-3 0 9992 2 39417 97.6938 216.0411 0054015 356.0228 4.0551 14.85682568530448 Delfi-N3xt 1 39428U 13066N 23257.36232449 .00006235 00000-0 88086-3 0 9993 2 39428 97.8303 179.0767 0106920 262.7021 96.2025 14.73612369525269 GOMX-1 1 39430U 13066Q 23257.63870858 .00003589 00000-0 61990-3 0 9992 2 39430 97.7661 143.5322 0145985 50.6442 310.7590 14.62204320522604 LO-74 1 39440U 13066AA 23257.42868079 .00004720 00000-0 60005-3 0 9996 2 39440 97.7777 203.3287 0076339 96.6042 264.3867 14.80016868527356 AO-73 1 39444U 13066AE 23257.41717242 .00007456 00000-0 80675-3 0 9998 2 39444 97.6796 218.6659 0051609 340.5218 19.4026 14.87569941528901 SPROUT 1 39770U 14029E 23257.36827027 .00032476 00000-0 22052-2 0 9991 2 39770 97.9960 27.5616 0005327 10.2397 349.8936 15.06304836505563 DTUSAT-2 1 40030U 14033W 23257.52380071 .00007400 00000-0 69986-3 0 9995 2 40030 97.9716 199.2751 0010755 7.4562 352.6816 14.93928686501333 EO-80 1 40032U 14033Y 23257.43210740 .00006611 00000-0 62584-3 0 9992 2 40032 97.9708 199.1988 0010773 6.8157 353.3207 14.93937160501294 HODOYOSHI-1 1 40299U 14070B 23257.82262007 .00013088 00000-0 37680-3 0 9999 2 40299 97.1856 318.2435 0008666 323.7848 36.2808 15.35847365492558 GRIFEX 1 40379U 15003D 23257.44649174 .00073623 00000-0 12320-2 0 9991 2 40379 99.0800 216.3120 0065245 323.9548 35.7307 15.49200188477159 XW-2C 1 40906U 15049H 23257.83245611 .00014756 00000-0 52875-3 0 9990 2 40906 97.4944 265.4179 0010434 193.5038 166.5924 15.28792181442088 XW-2D 1 40907U 15049J 23257.85334335 .00018382 00000-0 60957-3 0 9994 2 40907 97.4919 266.2473 0009832 183.1502 176.9679 15.31269505442195 LILACSAT-2 1 40908U 15049K 23257.80367561 .00006795 00000-0 31030-3 0 9992 2 40908 97.5277 260.6894 0011940 232.1497 127.8658 15.20859373441412 XW-2E 1 40909U 15049L 23257.83900391 .00042777 00000-0 91248-3 0 9997 2 40909 97.4491 273.5817 0009500 142.5224 217.6689 15.44726842442951 XW-2F 1 40910U 15049M 23257.81211769 .00040703 00000-0 89086-3 0 9995 2 40910 97.4588 272.8105 0010036 146.2096 213.9793 15.43970804442689 XW-2B 1 40911U 15049N 23257.73297353 .00019987 00000-0 66800-3 0 9999 2 40911 97.4897 266.5037 0009760 185.4589 174.6547 15.30999022442051 DCBB 1 40912U 15049P 23257.80196261 .00061176 00000-0 98843-3 0 9993 2 40912 97.4093 277.8685 0010509 110.6420 249.5960 15.52605560443474 IO-86 1 40931U 15052B 23257.67916181 .00001492 00000-0 11633-3 0 9991 2 40931 5.9984 167.6406 0012578 124.3162 235.8157 14.77353175430603 ChubuSat-2 1 41338U 16012B 23257.51749321 .00005435 00000-0 37009-3 0 9999 2 41338 31.0040 6.3859 0011989 349.7191 10.3200 15.04722898415846 ChubuSat-3 1 41339U 16012C 23257.72175081 .00005056 00000-0 34580-3 0 9999 2 41339 31.0105 2.3872 0011976 358.6290 1.4312 15.04514339415861 Horyu-4 1 41340U 16012D 23257.51503068 .00009995 00000-0 60610-3 0 9997 2 41340 31.0048 328.1941 0011185 61.5366 298.6398 15.09240226416222 e-st@r-II 1 41459U 16025D 23257.84663533 .00038907 00000-0 95766-3 0 9997 2 41459 98.1753 108.6002 0095676 145.0827 215.6741 15.35809723406633 LO-87 1 41557U 16033B 23257.59703721 .00211056 00000-0 11965-2 0 9997 2 41557 97.3871 10.1134 0004923 198.0459 162.0634 15.78451511407633 NuSat2 1 41558U 16033C 23257.73538879 .00376225 54836-4 12440-2 0 9993 2 41558 97.4144 19.6056 0004823 226.5546 133.5326 15.90361907408059 Lapan A3 1 41603U 16040E 23257.75994565 .00003485 00000-0 15098-3 0 9990 2 41603 97.1626 279.1953 0012640 9.1944 350.9523 15.22954904401129 Pratham 1 41783U 16059A 23257.07639751 .00001082 00000-0 21300-3 0 9991 2 41783 97.8643 284.2218 0033035 176.5949 183.5485 14.64121415371985 TY-1 1 41844U 16066D 23257.85777139 .00140181 00000-0 12120-2 0 9999 2 41844 97.3585 280.5057 0008555 99.5068 260.7161 15.68717811381669 CAS-2T 1 41847U 16066G 23257.81281817 .00001145 00000-0 18020-3 0 9993 2 41847 98.4967 325.9219 0357560 288.5250 67.7406 14.39997978359706 CAS-4B 1 42759U 17034B 23257.66404171 .00011821 00000-0 56300-3 0 9990 2 42759 43.0166 337.6829 0011989 316.9782 43.0129 15.19056393345239 CAS-4A 1 42761U 17034D 23257.67978953 .00011419 00000-0 54393-3 0 9991 2 42761 43.0154 336.1131 0012566 318.6275 41.3621 15.19070724345240 NIUSat 1 42766U 17036B 23257.03991808 .00043167 00000-0 92118-3 0 9994 2 42766 97.1497 286.6275 0011036 131.9222 228.2970 15.44694025346307 Aalto 1 1 42775U 17036L 23257.31522500 .00027181 00000-0 70089-3 0 9995 2 42775 97.1459 284.9685 0010875 134.8450 225.3682 15.39092623346214 URSA MAIOR 1 42776U 17036M 23257.05336589 .00033283 00000-0 78724-3 0 9991 2 42776 97.1467 286.3546 0010487 131.6602 228.5545 15.41683568346264 Max Valier Sat 1 42778U 17036P 23257.51172101 .00031890 00000-0 71165-3 0 9996 2 42778 97.1457 290.4820 0009421 129.0560 231.1528 15.43447843346487 Pegasus 1 42784U 17036V 23257.54246365 .00078093 00000-0 10963-2 0 9994 2 42784 97.1379 294.3643 0007766 121.7020 238.4993 15.56433200346834 SUCHAI 1 1 42788U 17036Z 23257.67091252 .00354277 00000-0 15649-2 0 9992 2 42788 97.1274 300.3423 0004849 147.5279 212.6290 15.83554297347315 SKCUBE 1 42789U 17036AA 23257.63816011 .00138904 00000-0 13295-2 0 9999 2 42789 97.1310 297.4798 0006871 122.1176 238.0753 15.66218973347045 VENTA 1 1 42791U 17036AC 23257.54257370 .00079432 00000-0 10971-2 0 9997 2 42791 97.1378 295.6061 0006815 121.2867 238.9057 15.56876467346895 Robusta 1B 1 42792U 17036AD 23257.08630838 .00245379 00000-0 15479-2 0 9994 2 42792 97.1280 298.9023 0005509 132.7962 227.3768 15.75930367347101 D-SAT 1 42794U 17036AF 23257.49231250 .00007882 00000-0 61055-3 0 9993 2 42794 97.4708 245.4706 0114856 2.1831 357.9869 14.96542257339288 TechnoSat 1 42829U 17042E 23257.61089844 .00003914 00000-0 37067-3 0 9991 2 42829 97.3856 89.7248 0011758 287.2891 72.7043 14.94106573335848 AO-91 1 43017U 17073E 23257.22648069 .00009548 00000-0 64987-3 0 9992 2 43017 97.6160 138.0684 0230489 134.6144 227.4132 14.87326889314415 PICSAT 1 43132U 18004X 23257.78952762 .00455233 00000-0 16543-2 0 9994 2 43132 97.3122 345.0417 0005247 245.8057 114.2667 15.87399449316592 AO-92 1 43137U 18004AC 23257.18322723 .00066041 00000-0 10236-2 0 9999 2 43137 97.3204 337.7676 0005282 169.2083 190.9284 15.53786772316093 TianYi 2 1 43155U 18008A 23257.81098503 .00024188 00000-0 85123-3 0 9993 2 43155 97.2891 308.3561 0011066 359.7591 0.3642 15.29265774312330 Zhou Enlai 1 43156U 18008B 23257.84120634 .00025060 00000-0 85670-3 0 9995 2 43156 97.2938 308.6612 0008756 1.9208 358.2065 15.30226490312277 TianYi 6 1 43158U 18008D 23257.66577461 .00022206 00000-0 86283-3 0 9991 2 43158 97.2962 304.9551 0009365 8.8488 351.2914 15.26031936312056 S-Net D 1 43186U 18014G 23257.52535268 .00005169 00000-0 40750-3 0 9991 2 43186 97.6143 159.6024 0012077 229.1899 130.8278 15.01134314306953 S-Net B 1 43187U 18014H 23257.26015135 .00005357 00000-0 42215-3 0 9996 2 43187 97.6146 159.2683 0012395 228.6914 131.3244 15.01128379306918 S-Net A 1 43188U 18014J 23257.52675099 .00005249 00000-0 41371-3 0 9999 2 43188 97.6151 159.6236 0012393 227.6482 132.3693 15.01133771306955 S-Net C 1 43189U 18014K 23257.72942289 .00005187 00000-0 40881-3 0 9996 2 43189 97.6160 159.7099 0013055 222.8251 137.1957 15.01131862305539 CubeBel-1 1 43666U 18083E 23257.54376674 .00054317 00000-0 11566-2 0 9997 2 43666 97.3726 290.0393 0009881 147.6273 212.5584 15.44718418270967 Changshagaoxin 1 43669U 18083H 23257.81841035 .00035019 00000-0 88263-3 0 9995 2 43669 97.3733 284.3809 0008191 145.6360 214.5418 15.39769317270713 Ten-Koh 1 43677U 18084G 23257.40304437 .00004454 00000-0 42770-3 0 9992 2 43677 98.0257 39.0210 0014427 209.6604 150.3799 14.93529536265374 PO-101 1 43678U 18084H 23257.62592490 .00003122 00000-0 30022-3 0 9993 2 43678 98.0359 43.4816 0008567 219.2414 140.8184 14.93749220265616 QO-100 1 43700U 18090A 23257.59415302 .00000141 00000-0 00000+0 0 9995 2 43700 0.0201 150.0032 0002522 59.4993 23.5059 1.00272733 17827 Reaktor Hello World 1 43743U 18096AA 23257.77850800 .00196027 00000-0 11941-2 0 9992 2 43743 97.3086 348.3127 0008121 212.7129 147.3635 15.76840629268193 MinXSS-2 1 43758U 18099A 23257.11700876 .00010421 00000-0 77929-3 0 9998 2 43758 97.5978 319.4568 0019594 179.0886 181.0379 15.02800340261097 AO-95 1 43770U 18099N 23257.12822381 .00008187 00000-0 64666-3 0 9999 2 43770 97.5770 316.3202 0014222 207.5899 152.4572 15.00857039260941 RANGE-B 1 43772U 18099Q 23257.75524875 .00007639 00000-0 57353-3 0 9993 2 43772 97.5664 319.9355 0007716 126.6925 233.5010 15.02871448261114 RANGE-A 1 43773U 18099R 23257.12752172 .00005204 00000-0 43162-3 0 9997 2 43773 97.5585 314.0740 0012174 167.8107 192.3413 14.99169089260882 MOVE-II 1 43780U 18099Y 23257.41712880 .00014394 00000-0 10006-2 0 9999 2 43780 97.5625 319.6301 0008447 198.2178 161.8747 15.05589438261157 SNUSat 2 1 43782U 18099AA 23257.36961116 .00007074 00000-0 56317-3 0 9996 2 43782 97.5599 317.0063 0015174 141.4823 218.7487 15.00591817261004 SnugLite 1 43784U 18099AC 23257.41712404 .00007326 00000-0 57428-3 0 9992 2 43784 97.5459 316.7090 0009535 158.9168 201.2451 15.01227646261056 ITASat 1 1 43786U 18099AE 23257.42157094 .00006151 00000-0 49370-3 0 9995 2 43786 97.5640 317.5974 0017615 188.7681 171.3238 15.00302000261023 EAGLET 1 1 43790U 18099AJ 23257.42625607 .00004782 00000-0 39135-3 0 9996 2 43790 97.5651 317.9947 0013098 188.6479 171.4521 14.99718278260759 ESEO 1 43792U 18099AL 23257.47859253 .00001695 00000-0 14814-3 0 9996 2 43792 97.5615 316.2359 0012407 178.9849 181.1402 14.98012095260755 CSIM 1 43793U 18099AM 23257.42168405 .00012665 00000-0 87120-3 0 9993 2 43793 97.5690 321.0733 0015965 177.5164 182.6145 15.05938839261007 Astrocast 0.1 1 43798U 18099AS 23257.72588813 .00012118 00000-0 87322-3 0 9997 2 43798 97.5777 320.5956 0012611 157.2093 202.9696 15.04250301261221 JO-97 1 43803U 18099AX 23257.42198923 .00008096 00000-0 62199-3 0 9995 2 43803 97.5664 317.7747 0013412 152.7122 207.4810 15.01927606261080 Suomi 100 1 43804U 18099AY 23257.17373328 .00008366 00000-0 64789-3 0 9999 2 43804 97.5742 317.2906 0017992 165.8941 194.2790 15.01555503261040 Al Farabi 2 1 43805U 18099AZ 23257.40459279 .00010757 00000-0 78932-3 0 9998 2 43805 97.5508 318.6420 0012983 155.2476 204.9375 15.03591591261157 CHOMPTT 1 43855U 18104G 23257.55511265 .00032699 00000-0 68294-3 0 9999 2 43855 85.0236 105.1292 0010404 353.1209 6.9901 15.45303885264350 ISAT 1 43879U 18111D 23257.50492322 .00008719 00000-0 63965-3 0 9996 2 43879 97.6327 160.7468 0013160 214.4283 145.6091 15.03661227257759 UWE-4 1 43880U 18111E 23257.51504550 .00007866 00000-0 58159-3 0 9997 2 43880 97.6249 161.3386 0016380 224.5346 135.4564 15.03363710257780 Sparrow 1 43881U 18111F 23257.29068931 .00010939 00000-0 79379-3 0 9993 2 43881 97.6396 161.9913 0009450 264.2286 95.7863 15.04044552257770 Lume 1 1 43908U 18111AJ 23257.18055730 .00060041 00000-0 93186-3 0 9995 2 43908 97.1212 139.4837 0008343 220.2301 139.8337 15.53750600263176 FO-99 1 43937U 19003F 23257.62412090 .00141971 00000-0 12810-2 0 9999 2 43937 97.0753 284.5132 0004795 298.1580 61.9197 15.67693200259987 AstroCast 0.2 1 44083U 19018F 23257.66406778 .00126127 00000-0 12823-2 0 9998 2 44083 97.2541 318.9701 0005173 233.8183 126.2598 15.64749752248335 AISTechSat 3 1 44103U 19018AB 23257.80165746 .00036628 00000-0 73390-3 0 9997 2 44103 97.2429 315.9204 0005973 308.8544 51.2172 15.46625076248337 AISat 1 1 44104U 19018AC 23257.48854993 .00030767 00000-0 51644-3 0 9997 2 44104 97.3734 350.7170 0035170 291.3774 68.3727 15.51030124249549 Prox-1 1 44339U 19036A 23257.22421242 .00009725 00000-0 19141-2 0 9991 2 44339 23.9997 197.9765 0010008 168.5630 191.5091 14.60608004224627 Move-IIb 1 44398U 19038N 23257.48405665 .00113720 00000-0 18069-2 0 9996 2 44398 97.6628 245.3287 0006899 0.7844 359.3417 15.52903376232464 SONATE 1 44400U 19038Q 23257.43430473 .00015851 00000-0 66794-3 0 9995 2 44400 97.6919 237.0786 0019942 8.0569 352.0983 15.23243483231811 BeeSat 9 1 44412U 19038AC 23257.42074641 .00038356 00000-0 11321-2 0 9998 2 44412 97.6792 241.3265 0013244 3.5391 356.5942 15.34793891231825 JAISAT-1 1 44419U 19038F 23257.48452594 .00035556 00000-0 10422-2 0 9998 2 44419 97.6792 242.5091 0012402 0.3091 359.8157 15.35040226232215 Taurus 1 1 44530U 19059C 23257.75297700 .00006568 00000-0 16728-2 0 9997 2 44530 98.5601 7.0063 0013654 175.4538 184.6782 14.50899214211626 Duchifat 3 1 44854U 19089C 23257.45494828 .00010753 00000-0 69263-3 0 9990 2 44854 36.9604 277.1708 0007806 318.5721 41.4431 15.07804113206303 OPS-SAT 1 44878U 19092F 23257.79000897 .00037380 00000-0 96150-3 0 9996 2 44878 97.4723 87.9835 0008251 166.5996 193.5470 15.39132543207557 TO-108 1 44881U 19093C 23257.78644215 .00001440 00000-0 18445-3 0 9997 2 44881 97.8564 334.7018 0015571 141.8671 218.3647 14.82747463202077 FloripaSat 1 1 44885U 19093G 23257.76052915 .00005534 00000-0 62978-3 0 9997 2 44885 97.8643 337.9540 0014438 142.8205 217.4013 14.86534540202250 RS-44 1 44909U 19096E 23257.50587392 .00000032 00000-0 88925-4 0 9990 2 44909 82.5177 288.5997 0216981 338.4300 20.7762 12.79722507173584 BY70-2 1 45857U 20042B 23257.86254290 .00023414 00000-0 21825-2 0 9996 2 45857 97.9222 338.2863 0008632 79.3227 280.8964 14.94209733172913 UPMSat 2 1 46276U 20061E 23257.43411607 .00011949 00000-0 48027-3 0 9997 2 46276 97.3390 323.2128 0002190 66.0249 294.1218 15.25074279167887 AmicalSat 1 46287U 20061R 23257.14240942 .00018943 00000-0 82101-3 0 9991 2 46287 97.3923 322.0808 0003361 126.1913 233.9635 15.22418171167233 SALSAT 1 46495U 20068K 23257.75604079 .00006803 00000-0 43775-3 0 9997 2 46495 97.7760 206.7919 0015451 168.8379 191.3194 15.08616949162576 CAPE 3 1 47309U 21002A 23257.57975022 .00059121 00000-0 11017-2 0 9994 2 47309 60.6730 73.4403 0014057 343.2779 16.7854 15.48322608148092 AO-109 1 47311U 21002C 23257.49702437 .00040665 00000-0 87681-3 0 9990 2 47311 60.6783 73.9085 0011377 345.7523 14.3252 15.44256995148053 ExoCube 2 1 47319U 21002L 23257.48320351 .00037018 00000-0 82625-3 0 9999 2 47319 60.6760 76.5598 0012292 343.9700 16.1006 15.43258583147979 UVSQ-SAT 1 47438U 21006AB 23257.15692707 .00023015 00000-0 86002-3 0 9991 2 47438 97.3754 313.1180 0010700 125.0717 235.1527 15.27308596146216 YUSAT 1 1 47439U 21006AC 23257.46908086 .00029210 00000-0 97996-3 0 9993 2 47439 97.3762 314.5871 0010016 121.9184 238.3033 15.30793936146331 SOMP 2b 1 47445U 21006AJ 23257.38889032 .00021513 00000-0 82544-3 0 9991 2 47445 97.3720 312.4523 0010523 129.3868 230.8305 15.26447578146216 IDEASSat 1 47458U 21006AX 23257.41078224 .00019299 00000-0 75944-3 0 9996 2 47458 97.3820 313.2749 0010032 127.9894 232.2252 15.25632451146197 CubeSX-Sirius-HSE 1 47951U 21022V 23257.81364543 .00011326 00000-0 60373-3 0 9991 2 47951 97.4847 153.7608 0019194 30.7658 329.4695 15.15188515136592 CubeSX-HSE 1 47952U 21022W 23257.51872703 .00013904 00000-0 73872-3 0 9993 2 47952 97.4850 153.5257 0019118 31.5056 328.7317 15.15255571136558 KSU-Cubesat 1 47954U 21022Y 23257.71196342 .00015649 00000-0 80579-3 0 9995 2 47954 97.4855 154.2293 0018444 29.8347 330.3934 15.16346272136337 GRBAlpha 1 47959U 21022AD 23257.76457348 .00013845 00000-0 73365-3 0 9992 2 47959 97.4853 153.8661 0018973 31.0972 329.1379 15.15351468135419 Orbicraft-Zorkiy 1 47960U 21022AE 23257.74280958 .00016000 00000-0 82691-3 0 9991 2 47960 97.4883 154.4113 0018470 29.4700 330.7570 15.16209585136128 STECCO 1 47962U 21022AG 23257.74819643 .00029915 00000-0 12373-2 0 9990 2 47962 97.4853 157.6682 0012537 21.3049 338.8707 15.23843633135663 MO-110 1 47964U 21022AJ 23257.28499562 .00032788 00000-0 13148-2 0 9998 2 47964 97.4867 157.9432 0014063 16.5981 343.5714 15.24846001135634 FEES 1 48082U 21022AL 23257.29565268 .00067357 00000-0 19761-2 0 9995 2 48082 97.4843 160.2764 0008977 19.4002 340.7581 15.34883317135495 TUBIN 1 48900U 21059X 23257.73897028 .00011908 00000-0 53827-3 0 9998 2 48900 97.6116 32.0703 0008118 336.5962 23.4903 15.21069948122786 IT-SPINS 1 49017U 21013G 23257.50840820 .00058315 00000-0 10467-2 0 9996 2 49017 51.5911 358.6228 0007700 305.8710 54.1562 15.49299247123525 LEDSAT 1 49069U 21073D 23257.75142610 .00013105 00000-0 68456-3 0 9998 2 49069 97.4754 327.1739 0023719 167.4070 192.7760 15.15781828114469 CUTE 1 49263U 21088D 23257.18387423 .00012870 00000-0 78571-3 0 9997 2 49263 97.5373 321.5116 0015818 320.8490 39.1594 15.10334565107718 TeikyoSat 4 1 49396U 21102B 23257.84274138 .00001998 00000-0 15413-3 0 9997 2 49396 97.5020 307.0415 0014673 131.2060 229.0433 15.02603556101233 Z-Sat 1 49399U 21102E 23257.83388259 .00005006 00000-0 35065-3 0 9998 2 49399 97.4753 308.1749 0022887 122.4210 237.9235 15.05459205101371 KOSEN 1 1 49402U 21102H 23257.86390865 .00005021 00000-0 33356-3 0 9990 2 49402 97.4691 308.8818 0022345 110.1811 250.1823 15.07433859101460 HO-113 1 50466U 21131B 23257.79845512 .00000793 00000-0 27108-3 0 9999 2 50466 98.5482 339.0560 0003533 219.0718 141.0215 14.39045674 90249 Tevel-3 1 50988U 22002E 23257.82760855 .00025320 00000-0 90019-3 0 9990 2 50988 97.4253 324.3807 0005688 271.9198 88.1391 15.28967477 92448 Tevel-8 1 50989U 22002F 23257.45779590 .00010420 00000-0 37385-3 0 9998 2 50989 97.4273 324.0805 0005672 272.5456 87.5134 15.28870378 92387 Tevel-5 1 50998U 22002Q 23257.71917303 .00028999 00000-0 99881-3 0 9992 2 50998 97.4249 324.7727 0006747 266.2132 93.8337 15.29969257 92465 Tevel-6 1 50999U 22002R 23257.71777473 .00028753 00000-0 99051-3 0 9992 2 50999 97.4248 324.7637 0006758 265.8572 94.1896 15.29965412 92463 Tevel-1 1 51013U 22002AF 23257.70954129 .00027300 00000-0 97193-3 0 9996 2 51013 97.4245 324.1897 0005561 272.1641 87.8962 15.28907373 92429 Grizu-263a 1 51025U 22002AT 23257.76456996 .00499544 00000-0 30557-2 0 9997 2 51025 97.4309 334.1365 0009468 244.9538 115.0745 15.75917318 92993 NO-116 1 51031U 22002AZ 23257.41740843 .00071681 00000-0 17565-2 0 9995 2 51031 97.4366 328.3223 0007397 258.0101 102.0316 15.40453142 92602 IRIS-A 1 51044U 22002BN 23257.65396348 .00013188 00000-0 59331-3 0 9998 2 51044 97.4268 321.8136 0006282 288.4037 71.6516 15.21213152 92253 Tevel-7 1 51062U 22002CG 23257.71923933 .00027241 00000-0 96960-3 0 9995 2 51062 97.4267 324.3123 0005648 271.3201 88.7392 15.28915503 92421 Tevel-4 1 51063U 22002CH 23257.72897175 .00028191 00000-0 10054-2 0 9999 2 51063 97.4263 324.2950 0005663 270.9247 89.1344 15.28843067 92424 Tevel-2 1 51069U 22002CP 23257.82907626 .00025578 00000-0 90905-3 0 9999 2 51069 97.4250 324.3509 0005653 271.7958 88.2634 15.28977041 92448 DELFI-PQ 1 51074U 22002CU 23257.20026586 .00081370 00000-0 16900-2 0 9998 2 51074 97.4503 331.2000 0006852 282.0043 78.0438 15.45362734 92704 SO-115 1 51080U 22002DA 23257.14273749 .00036693 00000-0 11336-2 0 9999 2 51080 97.4536 328.3389 0008032 303.7351 56.3125 15.33410342 92505 SO-114 1 51081U 22002DB 23257.44472632 .00037691 00000-0 11539-2 0 9999 2 51081 97.4525 328.6336 0008173 301.9193 58.1254 15.33693057 92553 OreSat0 1 52017U 22026K 23257.52018847 .00023740 00000-0 85780-3 0 9998 2 52017 97.5105 260.3975 0023026 125.6632 234.6756 15.28210833 83179 Planetum 1 1 52738U 22057G 23257.32484761 .00021070 00000-0 89729-3 0 9993 2 52738 97.5458 13.4525 0006943 45.2337 314.9463 15.22980563 72214 Foresail-1 1 52766U 22057AL 23257.57347794 .00012926 00000-0 57962-3 0 9999 2 52766 97.5584 14.5694 0011808 24.5984 335.5812 15.21288179 72263 SNUGLITE 2 1 52899U 22065F 23257.69093563 .00001896 00000-0 40849-3 0 9990 2 52899 98.0820 40.1190 0006834 301.2561 58.7969 14.59554039 63914 CTIM 1 52950U 22074G 23257.30397974 .00098925 00000-0 14693-2 0 9995 2 52950 44.9967 217.4243 0012236 94.0494 266.1798 15.54127075 67413 IO-117 1 53106U 22080B 23248.51952417 -.00000003 00000-0 00000-0 0 9994 2 53106 70.1477 291.8088 0008558 171.6392 188.4412 6.42557127 26919 AstroBioCubeSat 1 53107U 22080C 23025.30817895 -.00000003 00000-0 00000-0 0 9995 2 53107 70.1710 9.4734 0013545 210.3158 149.6718 6.42110537 12478 SelfieSat 1 53951U 22057BC 23257.56601082 .00026908 00000-0 10623-2 0 9995 2 53951 97.5503 14.6667 0008105 33.5736 326.6014 15.25474289 72294 FO-118 1 54684U 22167C 23257.69921213 .00015870 00000-0 82066-3 0 9993 2 54684 97.5738 34.8593 0013102 30.4345 329.7645 15.16269708 42238 SSS-2B 1 56184U 23054G 23257.74159010 .00016458 00000-0 65872-3 0 9999 2 56184 97.3974 151.5594 0012695 82.8239 277.4442 15.25071263 23816 CIRBE 1 56188U 23054L 23257.22331033 .00022169 00000-0 85742-3 0 9997 2 56188 97.3934 151.0869 0011236 78.5353 281.7146 15.26168718 23749 INSPIRE-Sat 7 1 56211U 23054AK 23257.25494810 .00026290 00000-0 95610-3 0 9994 2 56211 97.3950 151.5514 0015723 63.1789 297.1056 15.28112551 23774 RoseyCubesat 1 1 56212U 23054AL 23257.68639845 .00027138 00000-0 97233-3 0 9996 2 56212 97.3956 152.0542 0015991 61.3152 298.9693 15.28591745 23849 ARKSAT 1 1 56311U 98067VC 23257.32308060 .00176521 00000-0 12274-2 0 9997 2 56311 51.6325 236.1056 0009459 66.0352 294.1636 15.73269790 22310 AuroraSat 1 56312U 98067VD 23257.65091624 .00309213 00000-0 14989-2 0 9990 2 56312 51.6274 232.2571 0009551 71.6467 288.5573 15.81011314 22420 Ex-Alta 2 1 56313U 98067VE 23257.31662556 .00183264 00000-0 12547-2 0 9996 2 56313 51.6292 236.0406 0009352 65.4085 294.7887 15.73610781 22337 LightCube 1 56314U 98067VF 23257.31652187 .00277384 00000-0 14857-2 0 9999 2 56314 51.6281 234.5279 0009841 62.2832 297.9166 15.78905618 22386 NEUDOSE 1 56315U 98067VG 23257.37729876 .00115882 00000-0 10854-2 0 9993 2 56315 51.6320 238.7197 0009151 56.2836 303.9031 15.66307502 22280 YukonSat 1 56316U 98067VH 23257.37489853 .00144095 00000-0 11537-2 0 9999 2 56316 51.6315 237.1968 0009485 56.9834 303.2074 15.70034274 22322 URESAT-1 1 56992U 23084BU 23257.53684977 .00017566 00000-0 97114-3 0 9996 2 56992 97.5136 12.6636 0016807 269.2318 90.6988 15.13825477 14155 MRC-100 1 56993U 23084BV 23257.27112692 .00019615 00000-0 10808-2 0 9999 2 56993 97.5142 12.4125 0016977 270.4253 89.5033 15.13917768 14124 UmKA 1 (RS40S) 1 57172U 23091G 23257.73667703 .00005271 00000-0 38515-3 0 9995 2 57172 97.6577 307.6687 0017282 348.1356 11.9460 15.03958849 11894 CubeBel-2 (EU11S) 1 57175U 23091K 23257.69984965 .00007655 00000-0 56408-3 0 9994 2 57175 97.6547 307.5577 0016395 357.5298 2.5843 15.03500045 11885 /EX